#datetime,building,power
2024-04-09T00:00:00,mnr,6.78
2024-04-09T00:01:00,mnr,6.73
2024-04-09T00:02:00,mnr,6.74
2024-04-09T00:03:00,mnr,6.75
2024-04-09T00:04:00,mnr,7.67
2024-04-09T00:05:00,mnr,7.18
2024-04-09T00:06:00,mnr,7.01
2024-04-09T00:07:00,mnr,7.86
2024-04-09T00:08:00,mnr,8.06
2024-04-09T00:09:00,mnr,7.88
2024-04-09T00:10:00,mnr,7.71
2024-04-09T00:11:00,mnr,7.41
2024-04-09T00:12:00,mnr,7.85
2024-04-09T00:13:00,mnr,7.96
2024-04-09T00:14:00,mnr,7.86
2024-04-09T00:15:00,mnr,7.78
2024-04-09T00:16:00,mnr,8.31
2024-04-09T00:17:00,mnr,7.61
2024-04-09T00:18:00,mnr,7.63
2024-04-09T00:19:00,mnr,7.56
2024-04-09T00:20:00,mnr,7.50
2024-04-09T00:21:00,mnr,7.56
2024-04-09T00:22:00,mnr,7.42
2024-04-09T00:23:00,mnr,8.26
2024-04-09T00:24:00,mnr,8.11
2024-04-09T00:25:00,mnr,7.56
2024-04-09T00:26:00,mnr,7.02
2024-04-09T00:27:00,mnr,6.92
2024-04-09T00:28:00,mnr,6.76
2024-04-09T00:29:00,mnr,7.88
2024-04-09T00:30:00,mnr,6.87
2024-04-09T00:31:00,mnr,6.85
2024-04-09T00:32:00,mnr,7.27
2024-04-09T00:33:00,mnr,7.37
2024-04-09T00:34:00,mnr,6.78
2024-04-09T00:35:00,mnr,6.21
2024-04-09T00:36:00,mnr,6.24
2024-04-09T00:37:00,mnr,6.23
2024-04-09T00:38:00,mnr,6.19
2024-04-09T00:39:00,mnr,6.23
2024-04-09T00:40:00,mnr,6.39
2024-04-09T00:41:00,mnr,6.22
2024-04-09T00:42:00,mnr,6.75
2024-04-09T00:43:00,mnr,6.68
2024-04-09T00:44:00,mnr,6.17
2024-04-09T00:45:00,mnr,6.23
2024-04-09T00:46:00,mnr,6.20
2024-04-09T00:47:00,mnr,6.27
2024-04-09T00:48:00,mnr,6.63
2024-04-09T00:49:00,mnr,6.06
2024-04-09T00:50:00,mnr,6.04
2024-04-09T00:51:00,mnr,6.08
2024-04-09T00:52:00,mnr,6.05
2024-04-09T00:53:00,mnr,6.18
2024-04-09T00:54:00,mnr,6.16
2024-04-09T00:55:00,mnr,6.15
2024-04-09T00:56:00,mnr,6.91
2024-04-09T00:57:00,mnr,6.45
2024-04-09T00:58:00,mnr,6.10
2024-04-09T00:59:00,mnr,6.52
2024-04-09T01:00:00,mnr,5.84
2024-04-09T01:01:00,mnr,5.87
2024-04-09T01:02:00,mnr,5.84
2024-04-09T01:03:00,mnr,5.80
2024-04-09T01:04:00,mnr,6.37
2024-04-09T01:05:00,mnr,6.90
2024-04-09T01:06:00,mnr,5.79
2024-04-09T01:07:00,mnr,6.06
2024-04-09T01:08:00,mnr,5.83
2024-04-09T01:09:00,mnr,6.17
2024-04-09T01:10:00,mnr,6.48
2024-04-09T01:11:00,mnr,6.18
2024-04-09T01:12:00,mnr,5.86
2024-04-09T01:13:00,mnr,6.91
2024-04-09T01:14:00,mnr,5.63
2024-04-09T01:15:00,mnr,5.70
2024-04-09T01:16:00,mnr,5.74
2024-04-09T01:17:00,mnr,5.88
2024-04-09T01:18:00,mnr,5.97
2024-04-09T01:19:00,mnr,5.77
2024-04-09T01:20:00,mnr,5.77
2024-04-09T01:21:00,mnr,5.81
2024-04-09T01:22:00,mnr,5.60
2024-04-09T01:23:00,mnr,5.72
2024-04-09T01:24:00,mnr,6.20
2024-04-09T01:25:00,mnr,5.44
2024-04-09T01:26:00,mnr,6.01
2024-04-09T01:27:00,mnr,5.51
2024-04-09T01:28:00,mnr,5.54
2024-04-09T01:29:00,mnr,6.15
2024-04-09T01:30:00,mnr,5.55
2024-04-09T01:31:00,mnr,5.61
2024-04-09T01:32:00,mnr,5.58
2024-04-09T01:33:00,mnr,5.65
2024-04-09T01:34:00,mnr,5.52
2024-04-09T01:35:00,mnr,5.54
2024-04-09T01:36:00,mnr,5.68
2024-04-09T01:37:00,mnr,5.57
2024-04-09T01:38:00,mnr,5.55
2024-04-09T01:39:00,mnr,5.74
2024-04-09T01:40:00,mnr,5.54
2024-04-09T01:41:00,mnr,5.60
2024-04-09T01:42:00,mnr,6.21
2024-04-09T01:43:00,mnr,5.53
2024-04-09T01:44:00,mnr,5.63
2024-04-09T01:45:00,mnr,5.63
2024-04-09T01:46:00,mnr,6.10
2024-04-09T01:47:00,mnr,5.59
2024-04-09T01:48:00,mnr,6.27
2024-04-09T01:49:00,mnr,5.55
2024-04-09T01:50:00,mnr,5.55
2024-04-09T01:51:00,mnr,5.43
2024-04-09T01:52:00,mnr,6.30
2024-04-09T01:53:00,mnr,5.59
2024-04-09T01:54:00,mnr,5.65
2024-04-09T01:55:00,mnr,5.57
2024-04-09T01:56:00,mnr,5.59
2024-04-09T01:57:00,mnr,5.52
2024-04-09T01:58:00,mnr,5.55
2024-04-09T01:59:00,mnr,5.51
2024-04-09T02:00:00,mnr,4.98
2024-04-09T02:01:00,mnr,4.61
2024-04-09T02:02:00,mnr,4.66
2024-04-09T02:03:00,mnr,4.80
2024-04-09T02:04:00,mnr,4.64
2024-04-09T02:05:00,mnr,4.63
2024-04-09T02:06:00,mnr,4.55
2024-04-09T02:07:00,mnr,4.66
2024-04-09T02:08:00,mnr,4.82
2024-04-09T02:09:00,mnr,4.85
2024-04-09T02:10:00,mnr,4.83
2024-04-09T02:11:00,mnr,4.83
2024-04-09T02:12:00,mnr,4.88
2024-04-09T02:13:00,mnr,4.85
2024-04-09T02:14:00,mnr,4.80
2024-04-09T02:15:00,mnr,4.82
2024-04-09T02:16:00,mnr,4.87
2024-04-09T02:17:00,mnr,4.94
2024-04-09T02:18:00,mnr,6.45
2024-04-09T02:19:00,mnr,4.85
2024-04-09T02:20:00,mnr,4.86
2024-04-09T02:21:00,mnr,4.89
2024-04-09T02:22:00,mnr,4.85
2024-04-09T02:23:00,mnr,4.92
2024-04-09T02:24:00,mnr,4.91
2024-04-09T02:25:00,mnr,4.80
2024-04-09T02:26:00,mnr,4.72
2024-04-09T02:27:00,mnr,4.69
2024-04-09T02:28:00,mnr,4.74
2024-04-09T02:29:00,mnr,4.78
2024-04-09T02:30:00,mnr,5.18
2024-04-09T02:31:00,mnr,4.56
2024-04-09T02:32:00,mnr,4.61
2024-04-09T02:33:00,mnr,4.68
2024-04-09T02:34:00,mnr,4.64
2024-04-09T02:35:00,mnr,5.29
2024-04-09T02:36:00,mnr,5.74
2024-04-09T02:37:00,mnr,4.61
2024-04-09T02:38:00,mnr,4.68
2024-04-09T02:39:00,mnr,4.69
2024-04-09T02:40:00,mnr,5.05
2024-04-09T02:41:00,mnr,5.18
2024-04-09T02:42:00,mnr,5.08
2024-04-09T02:43:00,mnr,5.30
2024-04-09T02:44:00,mnr,5.69
2024-04-09T02:45:00,mnr,5.14
2024-04-09T02:46:00,mnr,5.15
2024-04-09T02:47:00,mnr,5.13
2024-04-09T02:48:00,mnr,5.18
2024-04-09T02:49:00,mnr,5.14
2024-04-09T02:50:00,mnr,5.22
2024-04-09T02:51:00,mnr,5.15
2024-04-09T02:52:00,mnr,5.16
2024-04-09T02:53:00,mnr,5.17
2024-04-09T02:54:00,mnr,5.16
2024-04-09T02:55:00,mnr,5.14
2024-04-09T02:56:00,mnr,5.16
2024-04-09T02:57:00,mnr,5.22
2024-04-09T02:58:00,mnr,5.22
2024-04-09T02:59:00,mnr,5.74
2024-04-09T03:00:00,mnr,5.25
2024-04-09T03:01:00,mnr,5.28
2024-04-09T03:02:00,mnr,5.26
2024-04-09T03:03:00,mnr,5.70
2024-04-09T03:04:00,mnr,6.65
2024-04-09T03:05:00,mnr,5.31
2024-04-09T03:06:00,mnr,5.40
2024-04-09T03:07:00,mnr,5.24
2024-04-09T03:08:00,mnr,5.35
2024-04-09T03:09:00,mnr,5.87
2024-04-09T03:10:00,mnr,5.22
2024-04-09T03:11:00,mnr,5.20
2024-04-09T03:12:00,mnr,5.24
2024-04-09T03:13:00,mnr,5.29
2024-04-09T03:14:00,mnr,5.54
2024-04-09T03:15:00,mnr,5.59
2024-04-09T03:16:00,mnr,5.23
2024-04-09T03:17:00,mnr,5.71
2024-04-09T03:18:00,mnr,5.18
2024-04-09T03:19:00,mnr,5.21
2024-04-09T03:20:00,mnr,5.14
2024-04-09T03:21:00,mnr,5.80
2024-04-09T03:22:00,mnr,5.15
2024-04-09T03:23:00,mnr,5.98
2024-04-09T03:24:00,mnr,5.27
2024-04-09T03:25:00,mnr,5.70
2024-04-09T03:26:00,mnr,5.15
2024-04-09T03:27:00,mnr,4.75
2024-04-09T03:28:00,mnr,4.79
2024-04-09T03:29:00,mnr,4.72
2024-04-09T03:30:00,mnr,5.44
2024-04-09T03:31:00,mnr,4.64
2024-04-09T03:32:00,mnr,4.63
2024-04-09T03:33:00,mnr,4.86
2024-04-09T03:34:00,mnr,5.81
2024-04-09T03:35:00,mnr,4.71
2024-04-09T03:36:00,mnr,4.70
2024-04-09T03:37:00,mnr,5.31
2024-04-09T03:38:00,mnr,4.69
2024-04-09T03:39:00,mnr,4.71
2024-04-09T03:40:00,mnr,4.77
2024-04-09T03:41:00,mnr,4.72
2024-04-09T03:42:00,mnr,5.38
2024-04-09T03:43:00,mnr,5.18
2024-04-09T03:44:00,mnr,4.73
2024-04-09T03:45:00,mnr,4.61
2024-04-09T03:46:00,mnr,4.55
2024-04-09T03:47:00,mnr,5.93
2024-04-09T03:48:00,mnr,4.73
2024-04-09T03:49:00,mnr,4.75
2024-04-09T03:50:00,mnr,5.57
2024-04-09T03:51:00,mnr,5.17
2024-04-09T03:52:00,mnr,4.75
2024-04-09T03:53:00,mnr,5.18
2024-04-09T03:54:00,mnr,4.66
2024-04-09T03:55:00,mnr,4.64
2024-04-09T03:56:00,mnr,4.65
2024-04-09T03:57:00,mnr,4.90
2024-04-09T03:58:00,mnr,4.66
2024-04-09T03:59:00,mnr,4.68
2024-04-09T04:00:00,mnr,5.77
2024-04-09T04:01:00,mnr,4.69
2024-04-09T04:02:00,mnr,4.66
2024-04-09T04:03:00,mnr,4.67
2024-04-09T04:04:00,mnr,4.65
2024-04-09T04:05:00,mnr,4.64
2024-04-09T04:06:00,mnr,4.63
2024-04-09T04:07:00,mnr,5.01
2024-04-09T04:08:00,mnr,5.01
2024-04-09T04:09:00,mnr,4.96
2024-04-09T04:10:00,mnr,5.60
2024-04-09T04:11:00,mnr,5.10
2024-04-09T04:12:00,mnr,5.06
2024-04-09T04:13:00,mnr,5.62
2024-04-09T04:14:00,mnr,5.07
2024-04-09T04:15:00,mnr,5.73
2024-04-09T04:16:00,mnr,5.35
2024-04-09T04:17:00,mnr,5.22
2024-04-09T04:18:00,mnr,5.78
2024-04-09T04:19:00,mnr,5.29
2024-04-09T04:20:00,mnr,5.31
2024-04-09T04:21:00,mnr,5.17
2024-04-09T04:22:00,mnr,5.20
2024-04-09T04:23:00,mnr,5.97
2024-04-09T04:24:00,mnr,5.24
2024-04-09T04:25:00,mnr,5.23
2024-04-09T04:26:00,mnr,5.14
2024-04-09T04:27:00,mnr,5.49
2024-04-09T04:28:00,mnr,5.20
2024-04-09T04:29:00,mnr,5.18
2024-04-09T04:30:00,mnr,5.21
2024-04-09T04:31:00,mnr,5.29
2024-04-09T04:32:00,mnr,5.29
2024-04-09T04:33:00,mnr,5.90
2024-04-09T04:34:00,mnr,5.27
2024-04-09T04:35:00,mnr,5.23
2024-04-09T04:36:00,mnr,5.31
2024-04-09T04:37:00,mnr,5.36
2024-04-09T04:38:00,mnr,5.15
2024-04-09T04:39:00,mnr,5.20
2024-04-09T04:40:00,mnr,5.15
2024-04-09T04:41:00,mnr,5.18
2024-04-09T04:42:00,mnr,5.16
2024-04-09T04:43:00,mnr,5.77
2024-04-09T04:44:00,mnr,5.28
2024-04-09T04:45:00,mnr,5.27
2024-04-09T04:46:00,mnr,5.37
2024-04-09T04:47:00,mnr,5.23
2024-04-09T04:48:00,mnr,5.23
2024-04-09T04:49:00,mnr,5.22
2024-04-09T04:50:00,mnr,5.25
2024-04-09T04:51:00,mnr,5.71
2024-04-09T04:52:00,mnr,5.30
2024-04-09T04:53:00,mnr,5.27
2024-04-09T04:54:00,mnr,5.44
2024-04-09T04:55:00,mnr,4.77
2024-04-09T04:56:00,mnr,4.91
2024-04-09T04:57:00,mnr,4.80
2024-04-09T04:58:00,mnr,4.82
2024-04-09T04:59:00,mnr,5.60
2024-04-09T05:00:00,mnr,4.89
2024-04-09T05:01:00,mnr,4.88
2024-04-09T05:02:00,mnr,4.77
2024-04-09T05:03:00,mnr,4.71
2024-04-09T05:04:00,mnr,4.71
2024-04-09T05:05:00,mnr,4.75
2024-04-09T05:06:00,mnr,4.73
2024-04-09T05:07:00,mnr,4.76
2024-04-09T05:08:00,mnr,4.73
2024-04-09T05:09:00,mnr,5.28
2024-04-09T05:10:00,mnr,4.61
2024-04-09T05:11:00,mnr,4.58
2024-04-09T05:12:00,mnr,4.59
2024-04-09T05:13:00,mnr,5.03
2024-04-09T05:14:00,mnr,5.03
2024-04-09T05:15:00,mnr,4.58
2024-04-09T05:16:00,mnr,5.79
2024-04-09T05:17:00,mnr,4.66
2024-04-09T05:18:00,mnr,4.65
2024-04-09T05:19:00,mnr,4.65
2024-04-09T05:20:00,mnr,4.63
2024-04-09T05:21:00,mnr,4.68
2024-04-09T05:22:00,mnr,5.74
2024-04-09T05:23:00,mnr,4.70
2024-04-09T05:24:00,mnr,4.64
2024-04-09T05:25:00,mnr,4.64
2024-04-09T05:26:00,mnr,4.71
2024-04-09T05:27:00,mnr,4.70
2024-04-09T05:28:00,mnr,4.90
2024-04-09T05:29:00,mnr,4.77
2024-04-09T05:30:00,mnr,5.28
2024-04-09T05:31:00,mnr,4.78
2024-04-09T05:32:00,mnr,4.80
2024-04-09T05:33:00,mnr,4.72
2024-04-09T05:34:00,mnr,5.11
2024-04-09T05:35:00,mnr,4.97
2024-04-09T05:36:00,mnr,5.02
2024-04-09T05:37:00,mnr,5.07
2024-04-09T05:38:00,mnr,5.69
2024-04-09T05:39:00,mnr,5.07
2024-04-09T05:40:00,mnr,5.34
2024-04-09T05:41:00,mnr,5.18
2024-04-09T05:42:00,mnr,5.14
2024-04-09T05:43:00,mnr,5.17
2024-04-09T05:44:00,mnr,5.06
2024-04-09T05:45:00,mnr,5.08
2024-04-09T05:46:00,mnr,5.07
2024-04-09T05:47:00,mnr,5.21
2024-04-09T05:48:00,mnr,5.42
2024-04-09T05:49:00,mnr,5.76
2024-04-09T05:50:00,mnr,5.24
2024-04-09T05:51:00,mnr,5.14
2024-04-09T05:52:00,mnr,6.21
2024-04-09T05:53:00,mnr,5.27
2024-04-09T05:54:00,mnr,5.79
2024-04-09T05:55:00,mnr,5.21
2024-04-09T05:56:00,mnr,5.17
2024-04-09T05:57:00,mnr,5.24
2024-04-09T05:58:00,mnr,5.22
2024-04-09T05:59:00,mnr,6.41
2024-04-09T06:00:00,mnr,5.05
2024-04-09T06:01:00,mnr,5.56
2024-04-09T06:02:00,mnr,6.46
2024-04-09T06:03:00,mnr,8.11
2024-04-09T06:04:00,mnr,9.20
2024-04-09T06:05:00,mnr,10.27
2024-04-09T06:06:00,mnr,12.50
2024-04-09T06:07:00,mnr,13.77
2024-04-09T06:08:00,mnr,12.04
2024-04-09T06:09:00,mnr,12.26
2024-04-09T06:10:00,mnr,12.57
2024-04-09T06:11:00,mnr,12.29
2024-04-09T06:12:00,mnr,12.31
2024-04-09T06:13:00,mnr,12.27
2024-04-09T06:14:00,mnr,12.91
2024-04-09T06:15:00,mnr,12.99
2024-04-09T06:16:00,mnr,12.91
2024-04-09T06:17:00,mnr,13.42
2024-04-09T06:18:00,mnr,13.65
2024-04-09T06:19:00,mnr,13.54
2024-04-09T06:20:00,mnr,14.22
2024-04-09T06:21:00,mnr,13.44
2024-04-09T06:22:00,mnr,12.39
2024-04-09T06:23:00,mnr,13.01
2024-04-09T06:24:00,mnr,12.95
2024-04-09T06:25:00,mnr,13.60
2024-04-09T06:26:00,mnr,13.02
2024-04-09T06:27:00,mnr,22.91
2024-04-09T06:28:00,mnr,13.89
2024-04-09T06:29:00,mnr,14.99
2024-04-09T06:30:00,mnr,14.13
2024-04-09T06:31:00,mnr,13.90
2024-04-09T06:32:00,mnr,13.93
2024-04-09T06:33:00,mnr,13.96
2024-04-09T06:34:00,mnr,14.01
2024-04-09T06:35:00,mnr,14.58
2024-04-09T06:36:00,mnr,14.10
2024-04-09T06:37:00,mnr,13.90
2024-04-09T06:38:00,mnr,13.95
2024-04-09T06:39:00,mnr,13.38
2024-04-09T06:40:00,mnr,13.83
2024-04-09T06:41:00,mnr,13.55
2024-04-09T06:42:00,mnr,15.07
2024-04-09T06:43:00,mnr,13.97
2024-04-09T06:44:00,mnr,13.94
2024-04-09T06:45:00,mnr,21.80
2024-04-09T06:46:00,mnr,13.80
2024-04-09T06:47:00,mnr,13.88
2024-04-09T06:48:00,mnr,14.38
2024-04-09T06:49:00,mnr,13.75
2024-04-09T06:50:00,mnr,13.13
2024-04-09T06:51:00,mnr,13.70
2024-04-09T06:52:00,mnr,13.76
2024-04-09T06:53:00,mnr,13.80
2024-04-09T06:54:00,mnr,13.14
2024-04-09T06:55:00,mnr,13.15
2024-04-09T06:56:00,mnr,13.47
2024-04-09T06:57:00,mnr,12.90
2024-04-09T06:58:00,mnr,13.32
2024-04-09T06:59:00,mnr,9.58
2024-04-09T07:00:00,mnr,13.53
2024-04-09T07:01:00,mnr,13.65
2024-04-09T07:02:00,mnr,13.67
2024-04-09T07:03:00,mnr,13.70
2024-04-09T07:04:00,mnr,13.62
2024-04-09T07:05:00,mnr,13.68
2024-04-09T07:06:00,mnr,13.78
2024-04-09T07:07:00,mnr,13.74
2024-04-09T07:08:00,mnr,13.79
2024-04-09T07:09:00,mnr,14.18
2024-04-09T07:10:00,mnr,13.82
2024-04-09T07:11:00,mnr,13.99
2024-04-09T07:12:00,mnr,14.02
2024-04-09T07:13:00,mnr,14.01
2024-04-09T07:14:00,mnr,14.01
2024-04-09T07:15:00,mnr,14.01
2024-04-09T07:16:00,mnr,13.98
2024-04-09T07:17:00,mnr,13.89
2024-04-09T07:18:00,mnr,14.69
2024-04-09T07:19:00,mnr,13.93
2024-04-09T07:20:00,mnr,14.24
2024-04-09T07:21:00,mnr,13.68
2024-04-09T07:22:00,mnr,12.69
2024-04-09T07:23:00,mnr,12.22
2024-04-09T07:24:00,mnr,13.39
2024-04-09T07:25:00,mnr,12.92
2024-04-09T07:26:00,mnr,12.80
2024-04-09T07:27:00,mnr,13.23
2024-04-09T07:28:00,mnr,12.84
2024-04-09T07:29:00,mnr,13.45
2024-04-09T07:30:00,mnr,13.42
2024-04-09T07:31:00,mnr,13.07
2024-04-09T07:32:00,mnr,13.09
2024-04-09T07:33:00,mnr,12.96
2024-04-09T07:34:00,mnr,14.79
2024-04-09T07:35:00,mnr,14.76
2024-04-09T07:36:00,mnr,13.84
2024-04-09T07:37:00,mnr,13.60
2024-04-09T07:38:00,mnr,14.31
2024-04-09T07:39:00,mnr,13.58
2024-04-09T07:40:00,mnr,14.32
2024-04-09T07:41:00,mnr,14.96
2024-04-09T07:42:00,mnr,14.33
2024-04-09T07:43:00,mnr,14.72
2024-04-09T07:44:00,mnr,15.40
2024-04-09T07:45:00,mnr,15.32
2024-04-09T07:46:00,mnr,14.31
2024-04-09T07:47:00,mnr,14.23
2024-04-09T07:48:00,mnr,14.18
2024-04-09T07:49:00,mnr,14.24
2024-04-09T07:50:00,mnr,14.18
2024-04-09T07:51:00,mnr,14.12
2024-04-09T07:52:00,mnr,14.06
2024-04-09T07:53:00,mnr,14.19
2024-04-09T07:54:00,mnr,14.68
2024-04-09T07:55:00,mnr,14.71
2024-04-09T07:56:00,mnr,13.72
2024-04-09T07:57:00,mnr,13.64
2024-04-09T07:58:00,mnr,13.81
2024-04-09T07:59:00,mnr,13.95
2024-04-09T08:00:00,mnr,14.00
2024-04-09T08:01:00,mnr,14.59
2024-04-09T08:02:00,mnr,14.47
2024-04-09T08:03:00,mnr,13.83
2024-04-09T08:04:00,mnr,13.95
2024-04-09T08:05:00,mnr,14.67
2024-04-09T08:06:00,mnr,14.12
2024-04-09T08:07:00,mnr,15.04
2024-04-09T08:08:00,mnr,14.36
2024-04-09T08:09:00,mnr,25.39
2024-04-09T08:10:00,mnr,14.30
2024-04-09T08:11:00,mnr,14.38
2024-04-09T08:12:00,mnr,13.29
2024-04-09T08:13:00,mnr,14.38
2024-04-09T08:14:00,mnr,14.38
2024-04-09T08:15:00,mnr,14.51
2024-04-09T08:16:00,mnr,15.92
2024-04-09T08:17:00,mnr,15.04
2024-04-09T08:18:00,mnr,14.98
2024-04-09T08:19:00,mnr,14.94
2024-04-09T08:20:00,mnr,15.16
2024-04-09T08:21:00,mnr,15.65
2024-04-09T08:22:00,mnr,14.88
2024-04-09T08:23:00,mnr,15.45
2024-04-09T08:24:00,mnr,14.86
2024-04-09T08:25:00,mnr,14.75
2024-04-09T08:26:00,mnr,14.71
2024-04-09T08:27:00,mnr,14.75
2024-04-09T08:28:00,mnr,14.73
2024-04-09T08:29:00,mnr,15.76
2024-04-09T08:30:00,mnr,14.95
2024-04-09T08:31:00,mnr,15.14
2024-04-09T08:32:00,mnr,16.74
2024-04-09T08:33:00,mnr,16.62
2024-04-09T08:34:00,mnr,16.97
2024-04-09T08:35:00,mnr,16.90
2024-04-09T08:36:00,mnr,17.16
2024-04-09T08:37:00,mnr,17.05
2024-04-09T08:38:00,mnr,17.30
2024-04-09T08:39:00,mnr,17.05
2024-04-09T08:40:00,mnr,18.30
2024-04-09T08:41:00,mnr,16.02
2024-04-09T08:42:00,mnr,16.73
2024-04-09T08:43:00,mnr,15.58
2024-04-09T08:44:00,mnr,16.00
2024-04-09T08:45:00,mnr,15.52
2024-04-09T08:46:00,mnr,15.56
2024-04-09T08:47:00,mnr,15.87
2024-04-09T08:48:00,mnr,15.71
2024-04-09T08:49:00,mnr,16.20
2024-04-09T08:50:00,mnr,15.71
2024-04-09T08:51:00,mnr,15.85
2024-04-09T08:52:00,mnr,15.82
2024-04-09T08:53:00,mnr,15.78
2024-04-09T08:54:00,mnr,16.17
2024-04-09T08:55:00,mnr,16.14
2024-04-09T08:56:00,mnr,15.56
2024-04-09T08:57:00,mnr,16.09
2024-04-09T08:58:00,mnr,16.12
2024-04-09T08:59:00,mnr,16.06
2024-04-09T09:00:00,mnr,15.78
2024-04-09T09:01:00,mnr,15.74
2024-04-09T09:02:00,mnr,15.69
2024-04-09T09:03:00,mnr,15.65
2024-04-09T09:04:00,mnr,15.12
2024-04-09T09:05:00,mnr,15.17
2024-04-09T09:06:00,mnr,15.81
2024-04-09T09:07:00,mnr,15.95
2024-04-09T09:08:00,mnr,15.43
2024-04-09T09:09:00,mnr,16.21
2024-04-09T09:10:00,mnr,16.15
2024-04-09T09:11:00,mnr,16.08
2024-04-09T09:12:00,mnr,17.06
2024-04-09T09:13:00,mnr,19.08
2024-04-09T09:14:00,mnr,18.15
2024-04-09T09:15:00,mnr,16.31
2024-04-09T09:16:00,mnr,16.21
2024-04-09T09:17:00,mnr,16.29
2024-04-09T09:18:00,mnr,16.22
2024-04-09T09:19:00,mnr,17.12
2024-04-09T09:20:00,mnr,17.27
2024-04-09T09:21:00,mnr,18.39
2024-04-09T09:22:00,mnr,16.36
2024-04-09T09:23:00,mnr,16.54
2024-04-09T09:24:00,mnr,16.43
2024-04-09T09:25:00,mnr,16.34
2024-04-09T09:26:00,mnr,16.18
2024-04-09T09:27:00,mnr,16.66
2024-04-09T09:28:00,mnr,16.45
2024-04-09T09:29:00,mnr,16.43
2024-04-09T09:30:00,mnr,16.43
2024-04-09T09:31:00,mnr,17.29
2024-04-09T09:32:00,mnr,16.35
2024-04-09T09:33:00,mnr,17.02
2024-04-09T09:34:00,mnr,16.47
2024-04-09T09:35:00,mnr,16.79
2024-04-09T09:36:00,mnr,20.01
2024-04-09T09:37:00,mnr,18.06
2024-04-09T09:38:00,mnr,28.15
2024-04-09T09:39:00,mnr,19.71
2024-04-09T09:40:00,mnr,29.70
2024-04-09T09:41:00,mnr,19.15
2024-04-09T09:42:00,mnr,19.64
2024-04-09T09:43:00,mnr,19.38
2024-04-09T09:44:00,mnr,18.48
2024-04-09T09:45:00,mnr,18.74
2024-04-09T09:46:00,mnr,30.09
2024-04-09T09:47:00,mnr,18.86
2024-04-09T09:48:00,mnr,19.23
2024-04-09T09:49:00,mnr,18.73
2024-04-09T09:50:00,mnr,19.00
2024-04-09T09:51:00,mnr,19.12
2024-04-09T09:52:00,mnr,18.45
2024-04-09T09:53:00,mnr,18.46
2024-04-09T09:54:00,mnr,18.79
2024-04-09T09:55:00,mnr,18.98
2024-04-09T09:56:00,mnr,18.93
2024-04-09T09:57:00,mnr,19.10
2024-04-09T09:58:00,mnr,19.69
2024-04-09T09:59:00,mnr,20.37
2024-04-09T10:00:00,mnr,20.65
2024-04-09T10:01:00,mnr,21.04
2024-04-09T10:02:00,mnr,20.44
2024-04-09T10:03:00,mnr,21.92
2024-04-09T10:04:00,mnr,19.24
2024-04-09T10:05:00,mnr,19.32
2024-04-09T10:06:00,mnr,19.39
2024-04-09T10:07:00,mnr,19.76
2024-04-09T10:08:00,mnr,19.84
2024-04-09T10:09:00,mnr,19.81
2024-04-09T10:10:00,mnr,19.76
2024-04-09T10:11:00,mnr,20.47
2024-04-09T10:12:00,mnr,19.97
2024-04-09T10:13:00,mnr,20.38
2024-04-09T10:14:00,mnr,19.90
2024-04-09T10:15:00,mnr,20.18
2024-04-09T10:16:00,mnr,20.54
2024-04-09T10:17:00,mnr,19.92
2024-04-09T10:18:00,mnr,19.87
2024-04-09T10:19:00,mnr,20.58
2024-04-09T10:20:00,mnr,19.82
2024-04-09T10:21:00,mnr,20.19
2024-04-09T10:22:00,mnr,19.97
2024-04-09T10:23:00,mnr,19.96
2024-04-09T10:24:00,mnr,20.72
2024-04-09T10:25:00,mnr,19.91
2024-04-09T10:26:00,mnr,19.79
2024-04-09T10:27:00,mnr,19.83
2024-04-09T10:28:00,mnr,19.90
2024-04-09T10:29:00,mnr,19.62
2024-04-09T10:30:00,mnr,19.14
2024-04-09T10:31:00,mnr,19.10
2024-04-09T10:32:00,mnr,19.91
2024-04-09T10:33:00,mnr,19.23
2024-04-09T10:34:00,mnr,19.74
2024-04-09T10:35:00,mnr,19.72
2024-04-09T10:36:00,mnr,20.10
2024-04-09T10:37:00,mnr,19.77
2024-04-09T10:38:00,mnr,20.40
2024-04-09T10:39:00,mnr,19.77
2024-04-09T10:40:00,mnr,20.44
2024-04-09T10:41:00,mnr,20.37
2024-04-09T10:42:00,mnr,27.04
2024-04-09T10:43:00,mnr,19.72
2024-04-09T10:44:00,mnr,22.15
2024-04-09T10:45:00,mnr,19.76
2024-04-09T10:46:00,mnr,20.95
2024-04-09T10:47:00,mnr,19.88
2024-04-09T10:48:00,mnr,20.82
2024-04-09T10:49:00,mnr,19.55
2024-04-09T10:50:00,mnr,19.74
2024-04-09T10:51:00,mnr,21.04
2024-04-09T10:52:00,mnr,19.37
2024-04-09T10:53:00,mnr,19.62
2024-04-09T10:54:00,mnr,20.18
2024-04-09T10:55:00,mnr,21.52
2024-04-09T10:56:00,mnr,19.68
2024-04-09T10:57:00,mnr,19.61
2024-04-09T10:58:00,mnr,19.57
2024-04-09T10:59:00,mnr,21.04
2024-04-09T11:00:00,mnr,23.24
2024-04-09T11:01:00,mnr,21.92
2024-04-09T11:02:00,mnr,22.93
2024-04-09T11:03:00,mnr,23.11
2024-04-09T11:04:00,mnr,20.87
2024-04-09T11:05:00,mnr,19.00
2024-04-09T11:06:00,mnr,19.13
2024-04-09T11:07:00,mnr,20.00
2024-04-09T11:08:00,mnr,23.24
2024-04-09T11:09:00,mnr,19.38
2024-04-09T11:10:00,mnr,19.00
2024-04-09T11:11:00,mnr,18.88
2024-04-09T11:12:00,mnr,15.23
2024-04-09T11:13:00,mnr,20.11
2024-04-09T11:14:00,mnr,19.84
2024-04-09T11:15:00,mnr,19.59
2024-04-09T11:16:00,mnr,19.47
2024-04-09T11:17:00,mnr,19.93
2024-04-09T11:18:00,mnr,19.42
2024-04-09T11:19:00,mnr,19.15
2024-04-09T11:20:00,mnr,19.34
2024-04-09T11:21:00,mnr,19.17
2024-04-09T11:22:00,mnr,19.21
2024-04-09T11:23:00,mnr,21.83
2024-04-09T11:24:00,mnr,21.19
2024-04-09T11:25:00,mnr,20.16
2024-04-09T11:26:00,mnr,20.12
2024-04-09T11:27:00,mnr,20.57
2024-04-09T11:28:00,mnr,20.93
2024-04-09T11:29:00,mnr,20.41
2024-04-09T11:30:00,mnr,20.41
2024-04-09T11:31:00,mnr,20.49
2024-04-09T11:32:00,mnr,20.57
2024-04-09T11:33:00,mnr,21.64
2024-04-09T11:34:00,mnr,20.61
2024-04-09T11:35:00,mnr,20.69
2024-04-09T11:36:00,mnr,20.70
2024-04-09T11:37:00,mnr,20.68
2024-04-09T11:38:00,mnr,21.36
2024-04-09T11:39:00,mnr,21.28
2024-04-09T11:40:00,mnr,20.63
2024-04-09T11:41:00,mnr,20.24
2024-04-09T11:42:00,mnr,20.93
2024-04-09T11:43:00,mnr,20.45
2024-04-09T11:44:00,mnr,20.69
2024-04-09T11:45:00,mnr,20.58
2024-04-09T11:46:00,mnr,21.35
2024-04-09T11:47:00,mnr,20.70
2024-04-09T11:48:00,mnr,21.03
2024-04-09T11:49:00,mnr,20.86
2024-04-09T11:50:00,mnr,20.81
2024-04-09T11:51:00,mnr,20.69
2024-04-09T11:52:00,mnr,21.73
2024-04-09T11:53:00,mnr,20.91
2024-04-09T11:54:00,mnr,21.11
2024-04-09T11:55:00,mnr,20.45
2024-04-09T11:56:00,mnr,20.44
2024-04-09T11:57:00,mnr,21.07
2024-04-09T11:58:00,mnr,21.04
2024-04-09T11:59:00,mnr,22.14
2024-04-09T12:00:00,mnr,21.74
2024-04-09T12:01:00,mnr,20.45
2024-04-09T12:02:00,mnr,20.49
2024-04-09T12:03:00,mnr,20.94
2024-04-09T12:04:00,mnr,20.69
2024-04-09T12:05:00,mnr,20.58
2024-04-09T12:06:00,mnr,20.69
2024-04-09T12:07:00,mnr,20.77
2024-04-09T12:08:00,mnr,20.75
2024-04-09T12:09:00,mnr,20.81
2024-04-09T12:10:00,mnr,20.77
2024-04-09T12:11:00,mnr,20.70
2024-04-09T12:12:00,mnr,20.62
2024-04-09T12:13:00,mnr,22.18
2024-04-09T12:14:00,mnr,22.36
2024-04-09T12:15:00,mnr,22.22
2024-04-09T12:16:00,mnr,21.45
2024-04-09T12:17:00,mnr,22.09
2024-04-09T12:18:00,mnr,22.44
2024-04-09T12:19:00,mnr,21.59
2024-04-09T12:20:00,mnr,22.41
2024-04-09T12:21:00,mnr,22.00
2024-04-09T12:22:00,mnr,21.13
2024-04-09T12:23:00,mnr,21.26
2024-04-09T12:24:00,mnr,21.67
2024-04-09T12:25:00,mnr,21.20
2024-04-09T12:26:00,mnr,20.85
2024-04-09T12:27:00,mnr,20.85
2024-04-09T12:28:00,mnr,19.46
2024-04-09T12:29:00,mnr,19.29
2024-04-09T12:30:00,mnr,19.29
2024-04-09T12:31:00,mnr,18.35
2024-04-09T12:32:00,mnr,25.32
2024-04-09T12:33:00,mnr,18.06
2024-04-09T12:34:00,mnr,18.00
2024-04-09T12:35:00,mnr,14.39
2024-04-09T12:36:00,mnr,17.90
2024-04-09T12:37:00,mnr,18.69
2024-04-09T12:38:00,mnr,15.65
2024-04-09T12:39:00,mnr,18.68
2024-04-09T12:40:00,mnr,30.03
2024-04-09T12:41:00,mnr,19.02
2024-04-09T12:42:00,mnr,18.96
2024-04-09T12:43:00,mnr,30.63
2024-04-09T12:44:00,mnr,20.54
2024-04-09T12:45:00,mnr,19.59
2024-04-09T12:46:00,mnr,30.55
2024-04-09T12:47:00,mnr,19.31
2024-04-09T12:48:00,mnr,18.88
2024-04-09T12:49:00,mnr,20.81
2024-04-09T12:50:00,mnr,20.71
2024-04-09T12:51:00,mnr,19.14
2024-04-09T12:52:00,mnr,19.18
2024-04-09T12:53:00,mnr,19.26
2024-04-09T12:54:00,mnr,21.50
2024-04-09T12:55:00,mnr,19.98
2024-04-09T12:56:00,mnr,21.16
2024-04-09T12:57:00,mnr,20.58
2024-04-09T12:58:00,mnr,20.29
2024-04-09T12:59:00,mnr,22.85
2024-04-09T13:00:00,mnr,32.36
2024-04-09T13:01:00,mnr,21.26
2024-04-09T13:02:00,mnr,21.69
2024-04-09T13:03:00,mnr,20.30
2024-04-09T13:04:00,mnr,20.16
2024-04-09T13:05:00,mnr,19.25
2024-04-09T13:06:00,mnr,19.36
2024-04-09T13:07:00,mnr,20.49
2024-04-09T13:08:00,mnr,19.39
2024-04-09T13:09:00,mnr,19.82
2024-04-09T13:10:00,mnr,22.67
2024-04-09T13:11:00,mnr,28.30
2024-04-09T13:12:00,mnr,18.75
2024-04-09T13:13:00,mnr,18.79
2024-04-09T13:14:00,mnr,19.61
2024-04-09T13:15:00,mnr,20.19
2024-04-09T13:16:00,mnr,20.24
2024-04-09T13:17:00,mnr,20.42
2024-04-09T13:18:00,mnr,20.44
2024-04-09T13:19:00,mnr,18.99
2024-04-09T13:20:00,mnr,19.08
2024-04-09T13:21:00,mnr,19.32
2024-04-09T13:22:00,mnr,19.18
2024-04-09T13:23:00,mnr,19.43
2024-04-09T13:24:00,mnr,19.48
2024-04-09T13:25:00,mnr,19.85
2024-04-09T13:26:00,mnr,21.28
2024-04-09T13:27:00,mnr,23.39
2024-04-09T13:28:00,mnr,22.59
2024-04-09T13:29:00,mnr,20.87
2024-04-09T13:30:00,mnr,20.79